FLOCK 4BE 32

导读

FLOCK 4BE 32是美国Planet Labs公司FLOCK鸽群星座中的一颗商业微型遥感卫星,于2024年8月16日发射入轨。作为FLOCK系列最新迭代卫星,它延续了鸽群卫星3U立方星设计,配备多光谱成像载荷,分辨率优于2.5米。该卫星旨在补充SuperDove星座在轨容量,为全球客户提供高频次遥感影像,服务农业、林业、测绘等多领域应用。

Basic Information
目录编号:
60497
目录名称:
FLOCK 4BE 32
国际标识:
2024-149AF
轨道中心:
EARTH
卫星名称:
FLOCK 4BE 32
卫星全名:
FLOCK 4BE 32
卫星状态:
在轨 (已飞行710 天)
发射日期:
2024-08-16 UTC
国别 :
美国 (US)
星等 :
--
Orbit Information
数据来源 国际轨道数据
星历时间: 2026-07-26T19:49:28+0800
23小时前
查看轨道信息
半长轴: 6814.099km
偏心率: 0.000533
轨道倾角: 97.372°
近地点辐角 129.005°
升交点赤经 291.877°
平近点角 231.167°
近地点: 432.33km
远地点: 439.594km
周期: 93.298分钟
每日圈数: 15.434415
Detailed Information
使用方式:
暂无
2D Orbit Map
3D Orbit Map
Orbit Altitude Analysis Chart
Orbit Inclination Analysis Chart
Orbit Comprehensive Analysis Chart
View Comprehensive Chart